COSMOS 1700

导读 | 豆包AI

**COSMOS 1700(宇宙1700号)**隶属于苏联/俄罗斯宇宙号卫星系列,是卢奇卫星家族的成员,由应用力学设计局研发。该卫星于1985年10月25日在拜科努尔发射场通过质子K Blok-DM2运载火箭发射升空,定位于地球静止轨道,承担通信及数据中继任务,卫星质量达24400kg,设计寿命5年。

Basic Information
目录编号:
16199
目录名称:
COSMOS 1700
国际标识:
1985-102A
轨道中心:
EARTH
卫星名称:
COSMOS 1700
卫星全名:
--
卫星状态:
在轨 (已飞行14797 天)
发射日期:
1985-10-25 UTC
国别 :
俄罗斯(独联体) (CIS)
星等 :
--
Orbit Information
数据来源 国际轨道数据 AOE轨道数据
星历时间 2026-04-30T21:45:20+0800
8小时前
查看轨道信息
2026-04-30T23:00:00+0800
7小时前
查看轨道信息
半长轴 42152.006km 42152.286km
偏心率 0.0003608 0.0003468
轨道倾角 9.793° 9.793°
近地点辐角 242.011° 243.286°
升交点赤经 319.165° 319.165°
平近点角 299.090° 316.537°
近地点 35758.66km 35759.53km
远地点 35789.078km 35788.768km
周期 1435.447分钟 1435.461分钟
每日圈数 1.003172 1.003162
Detailed Information
使用方式:
暂无
2D Orbit Map
3D Orbit Map
Orbit Altitude Analysis Chart
Orbit Inclination Analysis Chart
Orbit Comprehensive Analysis Chart
View Comprehensive Chart